When you browse on this site, cookies collect data to enhance your experience and personalize the content and advertising you see.
Visit our Privacy Policy to learn more. By continuing to use the site, you agree to this use of cookies and data.
  • En España
  • Lista de países
  • Para 7 días
  • Temperatura del agua
  • Mapa Satelital
  • El tiempo en el mapa
  • Informadores
  • user-avatar
    Iniciar sesión

    Tiempo cada hora Szczutki

    Hoy, 16 Febrero, Sábado

    Tiempo Temperatura Precipitaciones Viento Presión Humedad
    00:00 +2°C° 0 mm 2 mps 764 mmHg 88%
    01:00 +2°C° 0 mm 2 mps 764 mmHg 87%
    02:00 +2°C° 0 mm 2 mps 764 mmHg 85%
    03:00 +2°C° 0 mm 2 mps 763 mmHg 84%
    04:00 +2°C° 0 mm 2 mps 763 mmHg 83%
    05:00 +1°C° 0 mm 2 mps 763 mmHg 83%
    06:00 +1°C° 0 mm 2 mps 763 mmHg 82%
    07:00 0°C° 0 mm 3 mps 762 mmHg 82%
    08:00 +2°C° 0 mm 3 mps 762 mmHg 76%
    09:00 +3°C° 0 mm 3 mps 762 mmHg 69%
    10:00 +5°C° 0 mm 4 mps 762 mmHg 63%
    11:00 +6°C° 0 mm 4 mps 762 mmHg 60%
    12:00 +7°C° 0 mm 4 mps 761 mmHg 57%
    13:00 +8°C° 0 mm 4 mps 761 mmHg 54%
    14:00 +8°C° 0 mm 4 mps 761 mmHg 55%
    15:00 +8°C° 0 mm 4 mps 760 mmHg 57%
    16:00 +8°C° 0 mm 4 mps 760 mmHg 58%
    17:00 +7°C° 0 mm 4 mps 760 mmHg 62%
    18:00 +6°C° 0 mm 4 mps 759 mmHg 65%
    19:00 +5°C° 0 mm 4 mps 759 mmHg 69%
    20:00 +5°C° 0 mm 4 mps 759 mmHg 71%
    21:00 +4°C° 0 mm 4 mps 759 mmHg 73%
    22:00 +4°C° 0 mm 4 mps 759 mmHg 74%
    23:00 +3°C° 0 mm 4 mps 759 mmHg 77%

    Mañana, 17 Febrero, Domingo

    Tiempo Temperatura Precipitaciones Viento Presión Humedad
    00:00 +3°C° 0 mm 4 mps 759 mmHg 79%
    01:00 +2°C° 0 mm 3 mps 759 mmHg 82%
    02:00 +2°C° 0 mm 3 mps 759 mmHg 84%
    03:00 +2°C° 0 mm 3 mps 759 mmHg 85%
    04:00 +1°C° 0 mm 3 mps 759 mmHg 87%
    05:00 +1°C° 0 mm 3 mps 759 mmHg 89%
    06:00 +1°C° 0 mm 3 mps 759 mmHg 90%
    07:00 +1°C° 0 mm 3 mps 759 mmHg 91%
    08:00 +2°C° 0 mm 3 mps 759 mmHg 89%
    09:00 +3°C° 0 mm 3 mps 759 mmHg 88%
    10:00 +3°C° 0 mm 3 mps 760 mmHg 86%
    11:00 +4°C° 0 mm 3 mps 760 mmHg 85%
    12:00 +5°C° 0 mm 3 mps 760 mmHg 84%
    13:00 +5°C° 0 mm 3 mps 760 mmHg 83%
    14:00 +7°C° 0 mm 3 mps 760 mmHg 84%
    15:00 +7°C° 0 mm 2 mps 760 mmHg 85%
    16:00 +7°C° 0 mm 2 mps 759 mmHg 85%
    17:00 +6°C° 0 mm 2 mps 760 mmHg 87%
    18:00 +7°C° 0 mm 1 mps 760 mmHg 89%
    19:00 +6°C° 0 mm 1 mps 760 mmHg 91%
    20:00 +5°C° 0 mm 0 mps 760 mmHg 91%
    21:00 +4°C° 0 mm 0 mps 760 mmHg 91%
    22:00 +3°C° 0 mm 0 mps 760 mmHg 92%
    23:00 +3°C° 0 mm 0 mps 760 mmHg 92%

    Pasado mañana, 18 Febrero, Lunes

    Tiempo Temperatura Precipitaciones Viento Presión Humedad
    00:00 +3°C° 0 mm 0 mps 760 mmHg 93%
    01:00 +4°C° 0 mm 1 mps 760 mmHg 93%
    02:00 +4°C° 0 mm 1 mps 760 mmHg 94%
    03:00 +3°C° 0 mm 1 mps 759 mmHg 94%
    04:00 +3°C° 0 mm 1 mps 759 mmHg 95%
    05:00 +3°C° 0 mm 1 mps 759 mmHg 95%
    06:00 +2°C° 0 mm 2 mps 759 mmHg 95%
    07:00 +2°C° 0 mm 2 mps 759 mmHg 95%
    08:00 +3°C° 0 mm 2 mps 759 mmHg 91%
    09:00 +3°C° 0 mm 3 mps 759 mmHg 86%
    10:00 +4°C° 0 mm 3 mps 759 mmHg 82%
    11:00 +5°C° 0 mm 3 mps 759 mmHg 76%
    12:00 +8°C° 0 mm 3 mps 759 mmHg 70%
    13:00 +9°C° 0 mm 3 mps 758 mmHg 64%
    14:00 +9°C° 0 mm 3 mps 758 mmHg 64%
    15:00 +8°C° 0 mm 3 mps 758 mmHg 64%
    16:00 +8°C° 0 mm 3 mps 757 mmHg 64%
    17:00 +7°C° 0 mm 3 mps 757 mmHg 69%
    18:00 +5°C° 0 mm 3 mps 757 mmHg 73%
    19:00 +4°C° 0 mm 3 mps 757 mmHg 77%
    20:00 +3°C° 0 mm 3 mps 757 mmHg 78%
    21:00 +3°C° 0 mm 3 mps 757 mmHg 80%
    22:00 +3°C° 0 mm 3 mps 757 mmHg 81%
    23:00 +2°C° 0 mm 3 mps 756 mmHg 81%

    19 Febrero, Martes

    Tiempo Temperatura Precipitaciones Viento Presión Humedad
    00:00 +2°C° 0 mm 3 mps 756 mmHg 82%
    01:00 +2°C° 0 mm 3 mps 756 mmHg 82%
    02:00 +2°C° 0 mm 3 mps 755 mmHg 83%
    03:00 +1°C° 0 mm 3 mps 755 mmHg 84%
    04:00 +1°C° 0 mm 3 mps 754 mmHg 85%
    05:00 +1°C° 0 mm 3 mps 754 mmHg 85%
    06:00 +1°C° 0 mm 3 mps 754 mmHg 85%
    07:00 +1°C° 0 mm 3 mps 754 mmHg 85%
    08:00 +1°C° 0 mm 4 mps 754 mmHg 82%
    09:00 +3°C° 0 mm 4 mps 754 mmHg 79%
    10:00 +4°C° 0 mm 4 mps 754 mmHg 76%
    11:00 +5°C° 0 mm 5 mps 753 mmHg 72%
    12:00 +6°C° 0 mm 5 mps 753 mmHg 69%
    13:00 +8°C° 0 mm 5 mps 753 mmHg 66%
    14:00 +8°C° 0 mm 5 mps 752 mmHg 67%
    15:00 +8°C° 0 mm 5 mps 752 mmHg 68%
    16:00 +8°C° 0 mm 5 mps 752 mmHg 69%
    17:00 +7°C° 0.4 mm 5 mps 752 mmHg 74%
    18:00 +6°C° 0.4 mm 5 mps 752 mmHg 80%
    19:00 +6°C° 0.4 mm 5 mps 753 mmHg 85%
    20:00 +5°C° 0 mm 5 mps 753 mmHg 86%
    21:00 +3°C° 0 mm 5 mps 753 mmHg 87%
    22:00 +3°C° 0 mm 5 mps 753 mmHg 88%
    23:00 +3°C° 0 mm 5 mps 753 mmHg 87%

    20 Febrero, Miércoles

    Tiempo Temperatura Precipitaciones Viento Presión Humedad
    00:00 +3°C° 0 mm 5 mps 754 mmHg 87%
    01:00 +2°C° 0 mm 6 mps 754 mmHg 86%
    02:00 +2°C° 0 mm 6 mps 754 mmHg 85%
    03:00 +2°C° 0 mm 6 mps 754 mmHg 85%
    04:00 +2°C° 0 mm 6 mps 754 mmHg 84%
    05:00 +2°C° 0 mm 6 mps 754 mmHg 84%
    06:00 +2°C° 0 mm 6 mps 754 mmHg 83%
    07:00 +2°C° 0 mm 6 mps 754 mmHg 83%
    08:00 +2°C° 0 mm 6 mps 755 mmHg 80%
    09:00 +3°C° 0 mm 6 mps 755 mmHg 78%
    10:00 +3°C° 0 mm 7 mps 755 mmHg 76%
    11:00 +3°C° 0 mm 7 mps 756 mmHg 75%
    12:00 +3°C° 0 mm 6 mps 756 mmHg 75%
    13:00 +3°C° 0 mm 6 mps 756 mmHg 75%
    14:00 +4°C° 0 mm 6 mps 756 mmHg 73%
    15:00 +5°C° 0 mm 5 mps 756 mmHg 71%
    16:00 +6°C° 0 mm 4 mps 756 mmHg 70%
    17:00 +5°C° 0 mm 4 mps 756 mmHg 74%
    18:00 +5°C° 0 mm 4 mps 757 mmHg 78%
    19:00 +5°C° 0 mm 3 mps 757 mmHg 81%
    20:00 +5°C° 0.1 mm 4 mps 757 mmHg 83%
    21:00 +5°C° 0.1 mm 4 mps 757 mmHg 85%
    22:00 +5°C° 0.1 mm 4 mps 757 mmHg 86%
    23:00 +5°C° 0.2 mm 4 mps 757 mmHg 87%

    21 Febrero, Jueves

    Tiempo Temperatura Precipitaciones Viento Presión Humedad
    00:00 +4°C° 0.2 mm 4 mps 757 mmHg 87%
    01:00 +4°C° 0.2 mm 4 mps 756 mmHg 88%
    02:00 +4°C° 0.4 mm 4 mps 756 mmHg 89%
    03:00 +4°C° 0.4 mm 4 mps 756 mmHg 90%
    04:00 +3°C° 0.4 mm 5 mps 755 mmHg 91%
    05:00 +5°C° 0.2 mm 5 mps 755 mmHg 91%
    06:00 +5°C° 0.2 mm 5 mps 755 mmHg 91%
    07:00 +5°C° 0.2 mm 5 mps 755 mmHg 92%
    08:00 +5°C° 0.1 mm 5 mps 755 mmHg 90%
    09:00 +5°C° 0.1 mm 6 mps 755 mmHg 89%
    10:00 +5°C° 0.1 mm 6 mps 755 mmHg 87%
    11:00 +7°C° 0.1 mm 6 mps 755 mmHg 86%
    12:00 +7°C° 0.1 mm 6 mps 754 mmHg 84%
    13:00 +7°C° 0.1 mm 6 mps 754 mmHg 83%
    14:00 +7°C° 1 mm 6 mps 754 mmHg 85%
    15:00 +5°C° 1 mm 6 mps 754 mmHg 87%
    16:00 +5°C° 1 mm 6 mps 753 mmHg 88%
    17:00 +6°C° 0.1 mm 5 mps 753 mmHg 88%
    18:00 +6°C° 0.1 mm 5 mps 753 mmHg 88%
    19:00 +6°C° 0.1 mm 5 mps 753 mmHg 88%
    20:00 +6°C° 0.1 mm 4 mps 754 mmHg 89%
    21:00 +5°C° 0.1 mm 4 mps 754 mmHg 89%
    22:00 +5°C° 0.1 mm 4 mps 755 mmHg 90%
    23:00 +5°C° 0.1 mm 5 mps 755 mmHg 88%
    Mostrar más